Regional Weather Roundup
Issued by NWS

Home | Current Version | Previous Version | Graphics & Text | Print | Product List | Glossary On
Versions: 1 2 3 4 5 6 7 8 9 10 11 12 13 14 15 16 17 18 19 20 21 22 23 24 25 26 27 28 29 30 31 32 33 34 35 36 37 38 39 40 41 42 43 44 45 46 47 48 49 50
778
ASUS43 KLOT 232104
RWRIL

ILLINOIS REGIONAL WEATHER ROUNDUP
NATIONAL WEATHER SERVICE CHICAGO/ROMEOVILLE IL
400 PM CDT SAT SEP 23 2017

NOTE: "FAIR" INDICATES FEW OR NO CLOUDS BELOW 12,000 FEET WITH NO
SIGNIFICANT WEATHER AND/OR OBSTRUCTIONS TO VISIBILITY.

* THESE STATIONS ARE NOT UNDER NWS QUALITY CONTROL. THEY ALSO MAY NOT
  REPORT WEATHER SUCH AS PRECIPITATION OR FOG.

ILZ001-002-007-009-015-016-024-232200-
NORTHWEST ILLINOIS

CITY           SKY/WX    TMP DP  RH WIND       PRES   REMARKS
MOLINE         PTSUNNY   92  64  39 S8        29.99F HX  93
STERLING*      SUNNY     91  66  43 CALM      30.02F HX  93
SAVANNA*       MOSUNNY   93  64  37 SW7       30.01F HX  94
$$

ILZ003-004-008-010-011-017-018-232200-
NORTH CENTRAL ILLINOIS

CITY           SKY/WX    TMP DP  RH WIND       PRES   REMARKS
ROCKFORD       PTSUNNY   88  62  41 S5        30.04F HX  88
FREEPORT*      SUNNY     89  63  41 S8        30.05F HX  90
ROCHELLE*      MOSUNNY   92  61  35 S7        30.04F HX  92
DE KALB*       SUNNY     91  63  38 CALM      30.05F HX  92
PERU*          MOSUNNY   91  62  37 E6        30.02F HX  91
$$

ILZ005-006-012>014-019>023-232200-
NORTHEAST ILLINOIS

CITY           SKY/WX    TMP DP  RH WIND       PRES   REMARKS
CHICAGO-OHARE  MOSUNNY   92  64  39 E13       30.03F HX  93
CHICAGO-MIDWAY MOSUNNY   92  66  42 E14       30.03F HX  94
AURORA         MOSUNNY   92  67  43 E6        30.04F HX  95
LANSING*       SUNNY     92  66  43 CALM      30.04F HX  94
JOLIET*        SUNNY     94  64  36 SE5       30.03F HX  96
WAUKEGAN       SUNNY     85  68  56 SE9       30.05F HX  88
DUPAGE AIRPORT PTSUNNY   93  63  36 VRB6      30.03F HX  94
KANKAKEE*      SUNNY     91  64  39 E6        30.05F HX  92
WHEELING       SUNNY     91  67  44 E7        30.05F HX  94
MORRIS*        SUNNY     93  63  37 SE5       30.02F HX  94
ROMEOVILLE*    MOSUNNY   92  62  36 CALM      30.04S HX  93
NORTHERLY ISL    N/A     80  68  66 NE6         N/A  HX  83
$$

LMZ740>746-232200-
SOUTHERN LAKE MICHIGAN

STATION/POSITION SKY/WX   TEMP    WIND        PRES    VSBY  WAVE
                          AIR SEA DIR/SP/G                  HT/PER
                          (F)     (DEG/KT/KT) (MB)    (MI)  (FT/S)
SOUTHERN BUOY              74 72  120/  6/  6 1018.6          0
WILMETTE HARBOR            76 74  100/  8/ 10   N/A           1/ 2
HARRISON CRIB              79      90/ 14/ 15   N/A
BURNHAM HARBOR             79                   N/A
CALUMET HARBOR             78      50/  9/ 11 1017.0F
BURNS HARBOR               80      70/  8/  9 1017.9F
MICHIGAN CITY              77      50/ 10/ 10   N/A
MICHIGAN CITY 6N           77 74   70/  6/  8   N/A           1
ST. JOSEPH                 76 74   60/  4/  6 1017.8F         0
$$

ILZ025>027-034>036-040-047-049-050-058-095>099-232200-
WEST-CENTRAL ILLINOIS

CITY           SKY/WX    TMP DP  RH WIND       PRES   REMARKS
QUINCY         MOSUNNY   92  61  35 VRB7      29.99F HX  92
MACOMB*        PTSUNNY   93  61  33 E8        30.03F HX  93
JACKSONVILLE*  MOSUNNY   93  58  31 SE8       30.00F HX  92
PITTSFIELD*    PTSUNNY   94  61  33 E7        30.01F HX  94
$$

ILZ028>032-037-038-041>044-048-051>054-059>061-232200-
CENTRAL ILLINOIS

CITY           SKY/WX    TMP DP  RH WIND       PRES   REMARKS
PONTIAC        SUNNY     94  61  33 E3        30.03F HX  94
BLOOMINGTON    SUNNY     90  65  43 E6        30.05F HX  92
DECATUR        MOSUNNY   92  58  31 SE8       30.02F HX  91
PEORIA         MOSUNNY   93  62  35 SE10      30.02F HX  93
LACON*         SUNNY     93  63  36 S6        30.01F HX  94
LINCOLN*       MOSUNNY   94  62  33 S7        30.02F HX  94
SPRINGFIELD    MOSUNNY   95  60  31 VRB7G16   30.01F HX  95
TAYLORVILLE    SUNNY     91  59  33 SE8       30.02F HX  90
$$

ILZ033-039-045-046-055>057-062-063-232200-
EAST-CENTRAL ILLINOIS

CITY           SKY/WX    TMP DP  RH WIND       PRES   REMARKS
CHAMPAIGN      SUNNY     94  60  32 E5        30.03F HX  94
RANTOUL*       PTSUNNY   93  66  40 E6        30.03F HX  96
MATTOON        SUNNY     92  61  35 SE8       30.02F HX  92
PARIS*         SUNNY     93  63  37 E12       30.04F HX  94
$$

ILZ079-100>102-232200-
SOUTHWEST ILLINOIS

CITY           SKY/WX    TMP DP  RH WIND       PRES   REMARKS
ALTON          MOSUNNY   91  64  40 E9        30.01F HX  93
BELLEVILLE     SUNNY     93  61  34 S7        29.98F HX  93
CAHOKIA*       SUNNY     94  59  31 E7        29.98F HX  93
SPARTA*        MOSUNNY   92  62  36 SE8       30.00F HX  92
$$

ILZ064>066-069>071-074>076-080>082-084>086-088>090-092>094-232200-
SOUTH-CENTRAL ILLINOIS

CITY           SKY/WX    TMP DP  RH WIND       PRES   REMARKS
CARBONDALE     SUNNY     89  66  46 E5        29.99F HX  91
CAIRO*         SUNNY     90  67  46 E3        29.98F HX  93
EFFINGHAM*     SUNNY     93  61  34 E10       30.03F HX  93
MARION         PTSUNNY   91  63  38 NE8       30.00F HX  92
MT. VERNON       N/A     93  62  35 SE7       30.00F HX  93
CENTRALIA*     MOSUNNY   93  59  31 E5        29.99F HX  93
SALEM*         MOSUNNY   92  58  30 NE5       30.00F HX  91
METROPOLIS*    MOSUNNY   92  66  43 SE6       29.99F HX  94
$$

ILZ067-068-072-073-078-083-087-091-232200-
SOUTHEAST ILLINOIS

CITY           SKY/WX    TMP DP  RH WIND       PRES   REMARKS
LAWRENCEVILLE  SUNNY     91  64  40 E7        30.02F HX  92
FLORA*         MOSUNNY   92  62  37 E9        30.01F HX  92
FAIRFIELD*     MOSUNNY   92  58  31 N3        30.00F HX  91
HARRISBURG*    SUNNY     91  61  36 E8        30.00F HX  91
ROBINSON*      SUNNY     92  61  35 E6        30.03S HX  92
CARMI*         SUNNY     91  61  36 E7        30.00F HX  90
$$

ABBREVIATIONS USED IN REMARKS
   TC - TEMPERATURE IN CELSIUS
  WCI - WIND CHILL INDEX
   HX - HEAT INDEX
  VSB - VISIBILITY
$$





USA.gov is the U.S. government's official web portal to all federal, state and local government web resources and services.